This demonstration page uses our WeatherBlox Daily Observations layout. Learn more.

Left ArrowRight Arrow

41.55636, -103.73856

Hourly Observations for August 4, 2021

Temp ( °F °C ) Dew Point ( °F °C ) Humidity (%) Winds ( mph kmh ) Pressure ( in mb ) Visibility ( mi km ) Precip ( " mm )
12:58 am 00:58 Mostly Cloudy 69 20.3 53 11.5 57 57 NW 12 19 30.01 1016 10 16 N/A
1:58 am 01:58 Mostly Cloudy 67 19.6 55 12.7 65 65 WNW 10 17 30.00 1016 10 16 N/A
2:58 am 02:58 Mostly Cloudy 66 18.8 55 12.7 68 68 WNW 13 20 30.01 1016 10 16 N/A
3:58 am 03:58 Mostly Cloudy 66 18.7 55 12.6 68 68 W 14 22 30.02 1017 10 16 N/A
4:58 am 04:58 Cloudy with Light Showers 65 18.1 56 13.5 75 75 NNW 9 15 30.05 1018 10 16 N/A
5:58 am 05:58 Cloudy 64 17.6 56 13.5 77 77 NW 8 13 30.06 1018 10 16 N/A
6:58 am 06:58 Cloudy with Light Showers 62 16.9 58 14.2 84 84 WNW 10 17 30.08 1019 10 16 N/A
7:58 am 07:58 Cloudy with Light Showers 63 17 59 14.8 87 87 W 9 15 30.09 1019 8 13 0.03 0.76
8:58 am 08:58 Mostly Cloudy with Light Showers 63 17.2 59 15.2 88 88 WNW 10 17 30.11 1020 10 16 0.02 0.51
9:58 am 09:58 Cloudy with Light Showers 64 17.5 60 15.6 89 89 NW 5 7 30.11 1020 10 16 0.01 0.25
10:58 am 10:58 Mostly Cloudy 65 18.5 58 14.3 77 77 NW 6 9 30.11 1020 10 16 N/A
11:58 am 11:58 Mostly Cloudy 69 20.6 57 14.1 66 66 WNW 7 11 30.10 1019 10 16 N/A
12:58 pm 12:58 Sunny 76 24.3 56 13.4 51 51 N 8 13 30.06 1018 10 16 N/A
1:58 pm 13:58 Mostly Sunny 78 25.7 56 13.3 46 46 NE 5 7 30.04 1017 10 16 N/A
2:58 pm 14:58 Sunny 81 27.3 52 11.3 37 37 NNE 5 7 30.02 1017 10 16 N/A
3:58 pm 15:58 Partly Cloudy 82 27.6 50 10 33 33 NNE 6 9 30.01 1016 10 16 N/A
4:58 pm 16:58 Mostly Sunny 82 28 48 9 30 30 N 8 13 29.99 1016 10 16 N/A
5:58 pm 17:58 Sunny 83 28.4 42 5.8 24 24 N 14 22 29.99 1016 10 16 N/A
6:58 pm 18:58 Sunny 81 27.2 41 4.9 24 24 N 12 19 30.00 1016 10 16 N/A
7:58 pm 19:58 Sunny 75 24.1 43 6.3 32 32 NNW 5 7 30.03 1017 10 16 N/A
8:58 pm 20:58 Clear 70 21.1 47 8.2 44 44 SW 5 7 30.06 1018 10 16 N/A
9:58 pm 21:58 Clear 71 21.6 41 4.9 34 34 SSW 3 6 30.06 1018 10 16 N/A
10:58 pm 22:58 Mostly Clear 64 17.7 44 6.7 49 49 SSW 5 7 30.09 1019 10 16 N/A
11:58 pm 23:58 Mostly Clear 64 17.8 47 8.1 53 53 S 5 7 30.07 1018 10 16 N/A

Powered by AerisWeather